Leakey, Texas, United States (78873)
Lat: 29.73N, Lon: 99.76W
Wx Zone: TXZ185
Local Info
Past Weather Observations for Sunday, December 14, 2014

NOTE: This archive is for the closest National Weather Service station to Leakey. Information may differ from the station used for current weather conditions.

Click here for Long-term Archive

Time Weather Temperature Dewpoint Humidity Pressure Winds Precip Visibility
23:50
Clear
Fog And Mist
55°F / 13°C 55°F / 13°C 100% 29.98 in
(1015 mb)
SSE 4.6 mph
(SSE 7 kph)
- 3SM
23:30
Clear
Fog And Mist
57°F / 14°C 57°F / 14°C 100% 29.98 in
(1015 mb)
S 8.1 mph
(S 13 kph)
- 3SM
23:10
Clear
Fog And Mist
57°F / 14°C 57°F / 14°C 100% 29.98 in
(1015 mb)
S 8.1 mph
(S 13 kph)
- 3SM
22:50
Clear
Fog And Mist
57°F / 14°C 57°F / 14°C 100% 29.98 in
(1015 mb)
S 5.8 mph
(S 9 kph)
- 3SM
22:30
Clear
Fog And Mist
57°F / 14°C 57°F / 14°C 100% 29.95 in
(1014 mb)
SSE 9.2 mph
(SSE 15 kph)
- 3SM
22:10
Clear
Fog And Mist
57°F / 14°C 57°F / 14°C 100% 29.95 in
(1014 mb)
S 9.2 mph
(S 15 kph)
- 3SM
21:50
Partly Cloudy
Fog And Mist
57°F / 14°C 57°F / 14°C 100% 29.95 in
(1014 mb)
S 9.2 mph
(S 15 kph)
- 2SM
21:30
Mostly Cloudy
Fog And Mist
57°F / 14°C 57°F / 14°C 100% 29.95 in
(1014 mb)
S 8.1 mph
(S 13 kph)
- 2SM
21:10
Overcast
Fog And Mist
59°F / 15°C 59°F / 15°C 100% 29.95 in
(1014 mb)
S 9.2 mph
(S 15 kph)
- 1SM
20:50
Overcast
Fog And Mist
59°F / 15°C 59°F / 15°C 100% 29.95 in
(1014 mb)
S 10.4 mph
(S 17 kph)
- 1 1/4SM
20:30
Mostly Cloudy
Fog And Mist
59°F / 15°C 57°F / 14°C 94% 29.95 in
(1014 mb)
S 10.4 mph
(S 17 kph)
- 2 1/2SM
20:10
Overcast
Fog And Mist
59°F / 15°C 59°F / 15°C 100% 29.95 in
(1014 mb)
S 9.2 mph
(S 15 kph)
- 3SM
19:50
Mostly Cloudy
Fog And Mist
59°F / 15°C 59°F / 15°C 100% 29.95 in
(1014 mb)
SSE 10.4 mph
(SSE 17 kph)
- 3SM
19:30
Partly Cloudy
Fog And Mist
59°F / 15°C 57°F / 14°C 94% 29.92 in
(1013 mb)
S 9.2 mph
(S 15 kph)
- 3SM
19:10
Mostly Cloudy
Fog And Mist
59°F / 15°C 57°F / 14°C 94% 29.92 in
(1013 mb)
S 9.2 mph
(S 15 kph)
- 3SM
18:50
Partly Cloudy
Fog And Mist
57°F / 14°C 57°F / 14°C 100% 29.92 in
(1013 mb)
SSE 6.9 mph
(SSE 11 kph)
- 3SM
18:30
Clear
Fog And Mist
57°F / 14°C 57°F / 14°C 100% 29.92 in
(1013 mb)
S 6.9 mph
(S 11 kph)
- 3SM
18:10
Clear
Fog And Mist
59°F / 15°C 57°F / 14°C 94% 29.92 in
(1013 mb)
SSE 6.9 mph
(SSE 11 kph)
- 5SM
17:50
Clear
Fog And Mist
59°F / 15°C 57°F / 14°C 94% 29.92 in
(1013 mb)
SSE 6.9 mph
(SSE 11 kph)
- 5SM
17:30
Clear
61°F / 16°C 57°F / 14°C 88% 29.92 in
(1013 mb)
SSE 6.9 mph
(SSE 11 kph)
- 7SM
17:10
Clear
61°F / 16°C 57°F / 14°C 88% 29.92 in
(1013 mb)
SSE 5.8 mph
(SSE 9 kph)
- 9SM
16:50
Partly Cloudy
63°F / 17°C 57°F / 14°C 83% 29.89 in
(1012 mb)
SSE 8.1 mph
(SSE 13 kph)
- 10SM
16:30
Mostly Cloudy
64°F / 18°C 59°F / 15°C 83% 29.92 in
(1013 mb)
SE 9.2 mph
(SE 15 kph)
- 10SM
16:10
Partly Cloudy
63°F / 17°C 59°F / 15°C 88% 29.92 in
(1013 mb)
SE 8.1 mph
(SE 13 kph)
- 10SM
15:50
Partly Cloudy
64°F / 18°C 59°F / 15°C 83% 29.92 in
(1013 mb)
SSE 9.2 mph
(SSE 15 kph)
- 10SM
15:30
Mostly Cloudy
64°F / 18°C 61°F / 16°C 88% 29.92 in
(1013 mb)
SSE 6.9 mph
(SSE 11 kph)
- 10SM
15:10
Mostly Cloudy
64°F / 18°C 59°F / 15°C 83% 29.92 in
(1013 mb)
S 5.8 mph
(S 9 kph)
- 10SM
14:50
Partly Cloudy
66°F / 19°C 59°F / 15°C 78% 29.92 in
(1013 mb)
S 6.9 mph
(S 11 kph)
- 10SM
14:30
Mostly Cloudy
64°F / 18°C 59°F / 15°C 83% 29.92 in
(1013 mb)
SSE 8.1 mph
(SSE 13 kph)
- 10SM
14:10
Mostly Cloudy
64°F / 18°C 59°F / 15°C 83% 29.92 in
(1013 mb)
S 6.9 mph
(S 11 kph)
- 10SM
13:50
Overcast
64°F / 18°C 59°F / 15°C 83% 29.92 in
(1013 mb)
S 8.1 mph
(S 13 kph)
- 10SM
13:30
Overcast
63°F / 17°C 61°F / 16°C 94% 29.92 in
(1013 mb)
SSE 13.8 mph
(SSE 22 kph)
- 10SM
13:10
Mostly Cloudy
63°F / 17°C 61°F / 16°C 94% 29.92 in
(1013 mb)
S 12.7 mph
(S 20 kph)
- 9SM
12:50
Overcast
Fog And Mist
61°F / 16°C 61°F / 16°C 100% 29.95 in
(1014 mb)
S 11.5 mph
(S 19 kph)
- 5SM
12:30
Overcast
Fog And Mist
61°F / 16°C 61°F / 16°C 100% 29.98 in
(1015 mb)
SSE 8.1 mph
(SSE 13 kph)
- 3SM
12:10
Overcast
Fog And Mist
61°F / 16°C 61°F / 16°C 100% 29.98 in
(1015 mb)
S 5.8 mph
(S 9 kph)
- 5SM
11:50
Overcast
Fog And Mist
61°F / 16°C 61°F / 16°C 100% 30.01 in
(1016 mb)
S 9.2 mph
(S 15 kph)
- 2 1/2SM
11:30
Overcast
Fog And Mist
61°F / 16°C 61°F / 16°C 100% 30.01 in
(1016 mb)
S 12.7 mph
(S 20 kph)
- 1 1/2SM
11:10
Overcast
Fog And Mist
61°F / 16°C 61°F / 16°C 100% 30.01 in
(1016 mb)
SSE 11.5 mph
(SSE 19 kph)
- 2 1/2SM
10:50
Overcast
Fog And Mist
61°F / 16°C 61°F / 16°C 100% 30.01 in
(1016 mb)
S 11.5 mph
(S 19 kph)
- 4SM
10:30
Overcast
Fog And Mist
61°F / 16°C 61°F / 16°C 100% 30.01 in
(1016 mb)
S 13.8 mph
(S 22 kph)
- 3SM
10:10
Overcast
Fog And Mist
61°F / 16°C 61°F / 16°C 100% 30.01 in
(1016 mb)
SSE 13.8 mph
(SSE 22 kph)
- 3SM
09:50
Overcast
Fog And Mist
61°F / 16°C 61°F / 16°C 100% 30.04 in
(1017 mb)
S 10.4 mph
(S 17 kph)
- 1 1/4SM
09:30
Overcast
Fog And Mist
61°F / 16°C 61°F / 16°C 100% 30.04 in
(1017 mb)
S 9.2 mph
(S 15 kph)
- 2SM
09:10
Overcast
Fog And Mist
61°F / 16°C 61°F / 16°C 100% 30.01 in
(1016 mb)
S 9.2 mph
(S 15 kph)
- 3/4SM
08:50
Overcast
Fog
59°F / 15°C 59°F / 15°C 100% 30.01 in
(1016 mb)
S 16.1 mph
(S 26 kph)
- 1/4SM
08:30
Overcast
Fog
59°F / 15°C 59°F / 15°C 100% 29.98 in
(1015 mb)
SSE 15 mph
(SSE 24 kph)
- 1/4SM
08:10
Overcast
Fog
59°F / 15°C 59°F / 15°C 100% 29.98 in
(1015 mb)
SSE 13.8 mph
(SSE 22 kph)
- M1/4SM
07:50
Overcast
Fog
59°F / 15°C 59°F / 15°C 100% 29.98 in
(1015 mb)
S 12.7 mph
(S 20 kph)
- M1/4SM
07:30
Overcast
Fog
59°F / 15°C 59°F / 15°C 100% 29.98 in
(1015 mb)
SSE 15 mph
(SSE 24 kph)
- 1/4SM
07:10
Overcast
Fog
59°F / 15°C 59°F / 15°C 100% 29.98 in
(1015 mb)
S 15 mph
(S 24 kph)
- 1/4SM
06:50
Overcast
Fog
59°F / 15°C 59°F / 15°C 100% 29.98 in
(1015 mb)
S 16.1 mph
(S 26 kph)
- 1/4SM
06:30
Overcast
Fog And Mist
59°F / 15°C 57°F / 14°C 94% 29.98 in
(1015 mb)
SSE 17.3 mph
(SSE 28 kph)
- 3/4SM
06:10
Overcast
Fog And Mist
59°F / 15°C 57°F / 14°C 94% 29.98 in
(1015 mb)
SSE 13.8 mph
(SSE 22 kph)
- 1 3/4SM
05:50
Overcast
59°F / 15°C 57°F / 14°C 94% 29.98 in
(1015 mb)
SSE 15 mph
(SSE 24 kph)
- 8SM
05:30
Overcast
59°F / 15°C 57°F / 14°C 94% 29.98 in
(1015 mb)
SSE 17.3 mph
(SSE 28 kph)
- 10SM
05:10
Overcast
59°F / 15°C 57°F / 14°C 94% 29.98 in
(1015 mb)
S 17.3 mph
(S 28 kph)
- 10SM
04:50
Overcast
59°F / 15°C 55°F / 13°C 88% 29.98 in
(1015 mb)
S 16.1 mph
(S 26 kph)
- 10SM
04:30
Overcast
59°F / 15°C 55°F / 13°C 88% 29.98 in
(1015 mb)
SSE 16.1 mph
(SSE 26 kph)
- 10SM
04:10
Overcast
59°F / 15°C 57°F / 14°C 94% 29.98 in
(1015 mb)
SSE 16.1 mph
(SSE 26 kph)
- 10SM
03:50
Overcast
61°F / 16°C 57°F / 14°C 88% 29.98 in
(1015 mb)
SSE 15 mph
(SSE 24 kph)
- 10SM
03:30
Overcast
61°F / 16°C 57°F / 14°C 88% 29.98 in
(1015 mb)
S 16.1 mph
(S 26 kph)
- 10SM
03:10
Overcast
61°F / 16°C 57°F / 14°C 88% 30.01 in
(1016 mb)
SSE 16.1 mph
(SSE 26 kph)
- 10SM
02:50
Overcast
61°F / 16°C 57°F / 14°C 88% 30.01 in
(1016 mb)
S 17.3 mph
(S 28 kph)
- 10SM
02:30
Overcast
61°F / 16°C 57°F / 14°C 88% 29.98 in
(1015 mb)
SSE 18.4 mph
(SSE 30 kph)
- 10SM
02:10
Overcast
61°F / 16°C 57°F / 14°C 88% 30.01 in
(1016 mb)
SSE 15 mph
(SSE 24 kph)
- 10SM
01:50
Overcast
61°F / 16°C 57°F / 14°C 88% 30.01 in
(1016 mb)
SSE 17.3 mph
(SSE 28 kph)
- 10SM
01:30
Overcast
61°F / 16°C 57°F / 14°C 88% 30.01 in
(1016 mb)
SSE 15 mph
(SSE 24 kph)
- 10SM
01:10
Overcast
61°F / 16°C 57°F / 14°C 88% 30.01 in
(1016 mb)
SSE 15 mph
(SSE 24 kph)
- 10SM
00:50
Overcast
61°F / 16°C 57°F / 14°C 88% 30.01 in
(1016 mb)
SSE 15 mph
(SSE 24 kph)
- 10SM
00:30
Overcast
61°F / 16°C 57°F / 14°C 88% 30.04 in
(1017 mb)
SSE 17.3 mph
(SSE 28 kph)
- 10SM
00:10
Overcast
61°F / 16°C 55°F / 13°C 83% 30.04 in
(1017 mb)
SSE 13.8 mph
(SSE 22 kph)
- 10SM
Time Weather Temperature Dewpoint Humidity Pressure Winds Precip Visibility


Weather for websites

WeatherForYou.com, LLC is not responsible for any damages or problems caused by this service. Current weather conditions are obtained from the closest station including government and personal stations which may have varying degrees of accuracy. Weather forecasts are derived from the NOAA NDFD. Like all things, this site belongs to Jesus Christ... He just trusts me to maintain it. If you have any questions or comments email webmaster@weatherforyou.com

Copyright © 2014, WeatherForYou.com LLC. All rights reserved.